Location: Unspecified
(0.0000°N, 0.0000°E)
Time: 11:14:05
(UTC+00:00)

Vanguard 2 Rocket - All Passes

Search period start: 11 December 2017 00:00
Search period end: 21 December 2017 00:00
Orbit: 555 x 3326 km, 32.9° (Epoch: 10 December)

Date Brightness Start Highest point End Pass type
(mag) Time Alt. Az. Time Alt. Az. Time Alt. Az.
11 Dec - 02:03:27 10° NW 02:21:08 42° NNE 02:33:09 10° E visible
11 Dec - 04:22:20 10° NW 04:38:44 84° SW 04:47:50 10° SE visible
11 Dec - 06:45:24 10° W 06:52:46 20° SW 06:57:58 10° S daylight
11 Dec - 15:48:55 10° SW 15:55:02 71° SE 16:06:05 10° ENE daylight
11 Dec - 18:02:22 10° W 18:10:40 37° NNW 18:24:17 10° NE visible
11 Dec - 20:21:13 10° NW 20:30:51 20° N 20:43:05 10° NNE visible
11 Dec - 22:42:59 10° NNW 22:55:17 19° N 23:07:49 10° NE visible
12 Dec - 01:01:30 10° NW 01:18:42 34° NNE 01:31:57 10° E visible
12 Dec - 03:19:43 10° NW 03:37:58 74° NE 03:48:40 10° ESE visible
12 Dec - 05:41:02 10° WNW 05:53:07 36° SW 06:00:28 10° SSE daylight
12 Dec - 14:50:44 10° SSW 14:55:46 39° SE 15:03:52 10° ENE daylight
12 Dec - 17:02:45 10° WSW 17:09:52 48° NNW 17:22:24 10° NE daylight
12 Dec - 19:19:36 10° WNW 19:28:17 22° NNW 19:40:14 10° NNE visible
12 Dec - 21:40:55 10° NNW 21:51:24 18° N 22:03:06 10° NE visible
12 Dec - 23:59:47 10° NNW 00:15:43 28° NNE 00:29:40 10° ENE visible
13 Dec - 02:17:25 10° NW 02:36:29 57° NNE 02:48:51 10° ESE visible
13 Dec - 04:37:22 10° WNW 04:53:09 57° SW 05:02:13 10° SE visible
13 Dec - 07:04:34 10° WSW 07:07:23 11° SW 07:09:51 10° SSW daylight
13 Dec - 13:53:16 10° S 13:56:44 19° SE 14:01:17 10° E daylight
13 Dec - 16:03:38 10° WSW 16:09:43 69° NNW 16:20:42 10° NE daylight
13 Dec - 18:18:44 10° WNW 18:26:27 25° NNW 18:37:57 10° NNE visible
13 Dec - 20:38:58 10° NW 20:47:49 17° N 20:58:25 10° NNE visible
13 Dec - 22:58:19 10° NNW 23:12:17 23° NNE 23:26:03 10° ENE visible
14 Dec - 01:15:29 10° NW 01:34:23 46° NNE 01:48:18 10° E visible
14 Dec - 03:34:14 10° WNW 03:52:37 81° SW 04:03:24 10° SE visible
14 Dec - 05:57:55 10° W 06:07:29 23° SW 06:14:00 10° S daylight
14 Dec - 15:04:57 10° SW 15:10:10 75° SE 15:19:07 10° ENE daylight
14 Dec - 17:18:33 10° W 17:25:20 31° NNW 17:36:09 10° NE daylight
14 Dec - 19:37:17 10° NW 19:44:51 17° N 19:54:29 10° NNE visible
14 Dec - 21:57:04 10° NNW 22:08:36 19° NNE 22:21:09 10° NE visible
15 Dec - 00:13:57 10° NW 00:31:45 36° NNE 00:46:44 10° E visible
15 Dec - 02:31:36 10° NW 02:51:25 78° NE 03:03:59 10° ESE visible
15 Dec - 04:53:12 10° WNW 05:07:26 39° SW 05:16:13 10° SSE visible
15 Dec - 14:06:45 10° SSW 14:11:04 38° SE 14:17:33 10° ENE daylight
15 Dec - 16:18:55 10° W 16:24:49 40° NNW 16:34:45 10° NE daylight
15 Dec - 18:35:59 10° NW 18:42:39 18° N 18:51:33 10° NNE visible
15 Dec - 20:56:02 10° NNW 21:04:59 16° N 21:15:24 10° NE visible
15 Dec - 23:12:48 10° NNW 23:28:42 29° NNE 23:43:56 10° ENE visible
16 Dec - 01:29:30 10° NW 01:49:35 62° NNE 02:03:55 10° ESE visible
16 Dec - 03:49:19 10° WNW 04:07:00 58° SW 04:17:43 10° SE visible
16 Dec - 06:16:27 10° WSW 06:22:11 14° SW 06:26:44 10° S daylight
16 Dec - 13:09:15 10° S 13:12:07 17° SE 13:15:34 10° E daylight
16 Dec - 15:19:46 10° WSW 15:24:55 58° NNW 15:33:39 10° NE daylight
16 Dec - 17:35:13 10° WNW 17:41:10 20° NNW 17:49:34 10° NNE daylight
16 Dec - 19:55:05 10° NNW 20:01:47 14° N 20:09:48 10° NNE visible
16 Dec - 22:12:04 10° NNW 22:25:23 23° NNE 22:39:39 10° ENE visible
17 Dec - 00:27:56 10° NW 00:47:14 49° NNE 01:03:00 10° E visible
17 Dec - 02:46:10 10° WNW 03:06:00 79° SW 03:18:38 10° SE visible
17 Dec - 05:10:06 10° W 05:21:52 26° SW 05:29:51 10° SSE visible
17 Dec - 14:21:02 10° SW 14:25:32 82° SE 14:32:42 10° ENE daylight
17 Dec - 16:35:00 10° WNW 16:40:20 24° NNW 16:48:17 10° NNE daylight
17 Dec - 18:54:09 10° NNW 18:59:13 13° N 19:05:20 10° NNE visible
17 Dec - 21:11:43 10° NNW 21:22:01 18° NNE 21:33:54 10° NE visible
17 Dec - 23:26:54 10° NNW 23:44:30 38° NNE 00:01:00 10° E visible
18 Dec - 01:43:45 10° NW 02:04:23 82° NE 02:18:58 10° ESE visible
18 Dec - 04:05:12 10° WNW 04:21:20 40° SW 04:31:43 10° SSE visible
18 Dec - 13:22:41 10° SSW 13:26:33 38° SE 13:31:46 10° ENE daylight
18 Dec - 15:35:16 10° W 15:40:05 31° NNW 15:47:31 10° NE daylight
18 Dec - 17:53:09 10° NW 17:57:22 13° N 18:02:31 10° NNE daylight
18 Dec - 20:11:46 10° NNW 20:18:50 14° NNE 20:27:07 10° NE visible
18 Dec - 22:26:22 10° NNW 22:41:34 30° NNE 22:57:39 10° E visible
19 Dec - 00:42:00 10° NW 01:02:15 65° NE 01:18:33 10° ESE visible
19 Dec - 03:01:19 10° WNW 03:20:23 58° SW 03:32:56 10° SE visible
19 Dec - 05:28:25 10° WSW 05:36:42 17° SW 05:43:00 10° S visible
19 Dec - 12:24:58 10° S 12:27:35 16° SE 12:30:29 10° ESE daylight
19 Dec - 14:35:59 10° WSW 14:40:21 46° NNW 14:47:06 10° NE daylight
19 Dec - 16:52:17 10° NW 16:56:11 14° NNW 17:01:08 10° NNE daylight
19 Dec - 19:12:24 10° N 19:16:04 11° N 19:20:11 10° NNE visible
19 Dec - 21:26:20 10° NNW 21:38:34 23° NNE 21:52:41 10° ENE visible
19 Dec - 23:40:53 10° NW 23:59:46 51° NNE 00:17:13 10° ESE visible
20 Dec - 01:58:22 10° WNW 02:18:54 77° SW 02:33:33 10° SE visible
20 Dec - 04:22:06 10° W 04:35:53 28° SW 04:45:27 10° SSE visible
20 Dec - 13:37:02 10° SW 13:41:07 87° NW 13:46:50 10° NE daylight
20 Dec - 15:51:47 10° WNW 15:55:37 17° NNW 16:00:41 10° NNE daylight
20 Dec - 20:26:52 10° NNW 20:35:38 17° NNE 20:46:07 10° NE visible
20 Dec - 22:40:23 10° NNW 22:57:07 39° NNE 23:14:44 10° E visible
